Sharm El Sheikh, Egypt

9:24 AM EET on December 14, 2017 (GMT +0200)
Sharm El Sheikh

Weather History for HESH - May, 2014

Change the Weather History Date:

Thursday, May 29, 2014

  Actual Average Record
Temperature  
Mean Temperature 92 °F -  
Max Temperature 107 °F 98 °F - ()
Min Temperature 78 °F 79 °F - ()
Cooling Degree Days 28    
Growing Degree Days 42 (Base 50)    
Moisture  
Dew Point 56 °F    
Average Humidity 36    
Maximum Humidity 61    
Minimum Humidity 9    
Precipitation  
Precipitation 0.00 in 0.00 in - ()
Sea Level Pressure  
Sea Level Pressure 29.78 in    
Wind  
Wind Speed 18 mph ()    
Max Wind Speed 24 mph    
Max Gust Speed -    
T = Trace of Precipitation, MM = Missing Value Source: Averaged Metar Reports

Daily Weather History Graph

Daily Weather History Graph

Search for Another Location

Airport or City:

Trip Planner

Search our weather history database for the weather conditions in past years. The results will help you decide how hot, cold, wet, or windy it might be!

Date:

Astronomy

May. 29, 2014 Rise Set
Actual Time 5:47 AM EEST 7:32 PM EEST
Civil Twilight 5:20 AM EEST 7:59 PM EEST
Nautical Twilight 4:49 AM EEST 8:30 PM EEST
Astronomical Twilight 4:16 AM EEST 9:03 PM EEST
Moon 6:19 AM EEST (5/29) 8:09 PM EEST (5/29)
Length of Visible Light 14h 38m
Length of Day
13h 45m
New Moon, 0% of the Moon is Illuminated
May 29
New Moon
Jun 5
First Quarter
Jun 13
Full
Jun 19
Last Quarter
Jun 27
New

Hourly Weather History & Observations

Time (EEST) Temp. Heat Index Dew Point Humidity Pressure Visibility Wind Dir Wind Speed Gust Speed Precip Events Conditions
12:00 AM 87.8 °F 85.7 °F 53.6 °F 31% 29.74 in - North 20.7 mph - N/A   Clear
1:00 AM 86.0 °F 85.4 °F 59.0 °F 40% 29.74 in - North 17.3 mph - N/A   Clear
2:00 AM 84.2 °F 85.0 °F 62.6 °F 48% 29.74 in - North 23.0 mph - N/A   Clear
3:00 AM 82.4 °F 83.4 °F 62.6 °F 51% 29.74 in - North 17.3 mph - N/A   Clear
4:00 AM 80.6 °F 81.8 °F 62.6 °F 54% 29.74 in - North 20.7 mph - N/A   Clear
5:00 AM 80.6 °F 81.8 °F 62.6 °F 54% 29.77 in - North 24.2 mph - N/A   Clear
6:00 AM 78.8 °F - 62.6 °F 57% 29.77 in - North 19.6 mph - N/A   Clear
7:00 AM 78.8 °F - 64.4 °F 61% 29.77 in - North 18.4 mph - N/A   Clear
8:00 AM 80.6 °F 82.7 °F 66.2 °F 61% 29.80 in - North 21.9 mph - N/A   Clear
9:00 AM 86.0 °F 86.6 °F 62.6 °F 45% 29.83 in - North 23.0 mph - N/A   Clear
10:00 AM 86.0 °F 87.3 °F 64.4 °F 48% 29.83 in - North 20.7 mph - N/A   Clear
11:00 AM 87.8 °F 90.4 °F 66.2 °F 49% 29.83 in - NNE 18.4 mph - N/A   Clear
12:00 PM 89.6 °F 89.5 °F 60.8 °F 38% 29.83 in - North 18.4 mph - N/A   Clear
1:00 PM 91.4 °F 92.1 °F 62.6 °F 38% 29.83 in - North 18.4 mph - N/A   Clear
2:00 PM 95.0 °F 92.7 °F 53.6 °F 25% 29.80 in - NNE 20.7 mph - N/A   Clear
3:00 PM 107.6 °F - 37.4 °F 9% 29.65 in - SSW 11.5 mph - N/A   Clear
4:00 PM 96.8 °F 94.4 °F 53.6 °F 23% 29.77 in - North 15.0 mph - N/A   Clear
5:00 PM 98.6 °F - 51.8 °F 21% 29.74 in - North 24.2 mph - N/A   Clear
6:00 PM 96.8 °F - 48.2 °F 19% 29.77 in - North 23.0 mph - N/A   Clear
7:00 PM 96.8 °F - 46.4 °F 18% 29.77 in - North 20.7 mph - N/A   Clear
8:00 PM 95.0 °F - 44.6 °F 18% 29.77 in - North 17.3 mph - N/A   Clear
9:00 PM 95.0 °F - 42.8 °F 16% 29.80 in - North 16.1 mph - N/A   Clear
10:00 PM 95.0 °F - 46.4 °F 19% 29.80 in - North 17.3 mph - N/A   Clear
11:00 PM 89.6 °F - 51.8 °F 27% 29.80 in - North 23.0 mph - N/A   Clear